Weather History for Opa Locka, FL

Change the Weather History Date:

Tuesday, November 20, 2012

  Actual Average Record
Temperature  
Mean Temperature 64 °F -  
Max Temperature 70 °F 81 °F 89 °F (1986)
Min Temperature 59 °F 65 °F 42 °F (1968)
Growing Degree Days 14 (Base 50)    
Moisture  
Dew Point 60 °F    
Average Humidity 87    
Maximum Humidity 100    
Minimum Humidity 75    
Precipitation  
Precipitation 0.00 in - - ()
Sea Level Pressure  
Sea Level Pressure 30.00 in    
Wind  
Wind Speed 9 mph (NW)    
Max Wind Speed 15 mph    
Max Gust Speed 24 mph    
Visibility 8 miles    
Events      
Averages and records for this station are not official NWS values.
T = Trace of Precipitation, MM = Missing Value Source: NWS Daily Summary

Daily Weather History Graph

Daily Weather History Graph

Search for Another Location

Airport:

Trip Planner

Search our weather history database for the weather conditions in past years. The results will help you decide how hot, cold, wet, or windy it might be!

Date:

Astronomy

Nov. 20, 2012 Rise Set
Actual Time 6:43 AM EST 5:30 PM EST
Civil Twilight 6:18 AM EST 5:54 PM EST
Nautical Twilight 5:50 AM EST 6:22 PM EST
Astronomical Twilight 5:23 AM EST 6:50 PM EST
Moon 12:36 PM EST (11/20) No Moon Set
Length of Visible Light 11h 36m
Length of Day
10h 47m
Waxing Crescent, 51% of the Moon is Illuminated
Nov 20
Waxing Crescent
Nov 28
Full
Dec 6
Last Quarter
Dec 13
New
Dec 20
First Quarter

Hourly Weather History & Observations

Time (EST) Temp. Dew Point Humidity Pressure Visibility Wind Dir Wind Speed Gust Speed Precip Events Conditions
12:00 AM 62.6 °F 57.2 °F 82% 30.04 in 10.0 mi NW 9.2 mph - N/A   Overcast
12:53 AM 61.0 °F 57.0 °F 87% 30.04 in 10.0 mi North 10.4 mph - N/A   Overcast
1:53 AM 60.1 °F 55.9 °F 86% 30.03 in 10.0 mi NW 10.4 mph - N/A   Overcast
2:19 AM 59.0 °F 57.2 °F 94% 30.02 in 10.0 mi NNW 9.2 mph - N/A   Overcast
2:53 AM 60.1 °F 57.9 °F 93% 30.01 in 10.0 mi NW 5.8 mph - N/A   Overcast
3:53 AM 60.1 °F 59.0 °F 96% 30.01 in 10.0 mi NW 8.1 mph - N/A   Overcast
4:53 AM 60.1 °F 59.0 °F 96% 30.01 in 10.0 mi NNW 5.8 mph - N/A   Overcast
5:53 AM 60.1 °F 59.0 °F 96% 30.01 in 7.0 mi NW 9.2 mph - N/A   Overcast
6:53 AM 59.0 °F 59.0 °F 100% 30.02 in 9.0 mi NW 9.2 mph - N/A   Overcast
6:56 AM 59.0 °F 59.0 °F 100% 30.02 in 7.0 mi NNW 11.5 mph - N/A   Overcast
7:03 AM 59.0 °F 59.0 °F 100% 30.02 in 2.0 mi NW 8.1 mph - N/A   Overcast
7:53 AM 60.1 °F 59.0 °F 96% 30.04 in 3.0 mi NNW 8.1 mph - N/A   Overcast
8:53 AM 60.1 °F 59.0 °F 96% 30.04 in 3.0 mi NNW 10.4 mph - N/A   Overcast
9:53 AM 61.0 °F 60.1 °F 97% 30.06 in 3.0 mi NW 15.0 mph - N/A   Overcast
10:53 AM 61.0 °F 60.1 °F 97% 30.04 in 10.0 mi NNW 11.5 mph - N/A   Overcast
11:53 AM 63.0 °F 60.1 °F 90% 30.03 in 3.0 mi NNW 11.5 mph - N/A   Overcast
12:53 PM 64.9 °F 61.0 °F 87% 30.00 in 5.0 mi NNW 9.2 mph - N/A   Overcast
1:00 PM 66.2 °F 60.8 °F 83% 29.99 in 10.0 mi NNW 6.9 mph - N/A   Overcast
1:53 PM 66.9 °F 61.0 °F 81% 29.97 in 10.0 mi NW 10.4 mph - N/A   Overcast
2:53 PM 68.0 °F 62.1 °F 81% 29.96 in 10.0 mi NW 10.4 mph - N/A   Overcast
3:18 PM 68.0 °F 62.6 °F 83% 29.95 in 10.0 mi NW 6.9 mph - N/A   Overcast
3:53 PM 69.1 °F 62.1 °F 78% 29.95 in 10.0 mi NW 9.2 mph - N/A   Overcast
4:11 PM 69.8 °F 62.6 °F 78% 29.94 in 10.0 mi NW 8.1 mph - N/A   Mostly Cloudy
4:53 PM 70.0 °F 62.1 °F 76% 29.95 in 10.0 mi NW 8.1 mph - N/A   Partly Cloudy
5:53 PM 69.1 °F 62.1 °F 78% 29.95 in 10.0 mi NW 4.6 mph - N/A   Mostly Cloudy
6:53 PM 68.0 °F 62.1 °F 81% 29.96 in 10.0 mi NW 5.8 mph - N/A   Clear
7:53 PM 68.0 °F 61.0 °F 78% 29.98 in 10.0 mi NW 6.9 mph - N/A   Clear
8:53 PM 69.1 °F 61.0 °F 75% 29.99 in 10.0 mi NNW 9.2 mph - N/A   Overcast
9:53 PM 68.0 °F 60.1 °F 76% 29.99 in 10.0 mi NNW 9.2 mph - N/A   Overcast
10:53 PM 66.9 °F 60.1 °F 79% 29.99 in 10.0 mi NNW 10.4 mph - N/A   Partly Cloudy
11:53 PM 66.0 °F 60.1 °F 81% 29.99 in 10.0 mi NNW 12.7 mph 24.2 mph N/A   Overcast